sat.trackr.live / text

‹ back to catalog

STARLINK-34980

NORAD 65258 · 2025-179Z

PAYLOAD ACTIVE UNKNOWN

§ Identity

Operator
Country
US
Launch date
2025-08-18
Launch site
AFWTR
Launch vehicle
Mass (kg)
RCS (m²)

Purposes: comms

External: N2YO · Heavens-Above · Gunter

§ Orbital elements

Epoch: 2026-05-25T02:09:23.897952Z

Period
95.64 min
Inclination
97.4504°
Eccentricity
0.0001075
Mean motion
15.05648000 rev/d
Perigee alt
548.8 km
Apogee alt
550.3 km
Semi-major
6,927.7 km
B*
-6.9039e-5
RAAN
187.8951°
Arg perigee
200.1315°
Mean anomaly
159.9870°
Rev number
4,331

§ Raw data

STARLINK-349801 65258U 25179Z   26145.08985993 -.00001055  00000+0 -69039-4 0  99922 65258  97.4504 187.8951 0001075 200.1315 159.9870 15.05648000 43310

JSON: /api/v1/satellites/65258 · /tle

For live sub-satellite position, see the globe view (requires WebGL).

§ Visibility from observer

Set your observer location to see the next 7 days of passes ≥ 10°. The values pass through the URL so the page stays shareable.

No JS? Fill the form by hand. The geolocation button needs JavaScript.